Regional Weather Roundup
Issued by NWS

Home | Current Version | Previous Version | Text Only | Print | Product List | Glossary Off
Versions: 1 2 3 4 5 6 7 8 9 10 11 12 13 14 15 16 17 18 19 20 21 22 23 24 25 26 27 28 29 30 31 32 33 34 35 36 37 38 39 40 41 42 43 44 45 46 47 48 49 50

000
ASUS43 KMPX 301510
RWRMN
WEATHER ROUNDUP FOR MINNESOTA
NATIONAL WEATHER SERVICE TWIN CITIES/CHANHASSEN MN
1000 AM CDT SAT MAY 30 2015


NOTE: "FAIR" INDICATES FEW OR NO CLOUDS BELOW 12,000 FEET WITH NO
SIGNIFICANT WEATHER AND/OR OBSTRUCTIONS TO VISIBILITY. N/A MEANS
CURRENT SKY AND/OR WEATHER CONDITIONS ARE NOT AVAILABLE.

MNZ060>063-068>070-301600-
   Twin Cities Metro

CITY           SKY/WX    TMP DP  RH WIND       PRES   REMARKS
TWIN CITIES    PTSUNNY   52  39  61 N16       30.22R
ST PAUL        MOSUNNY   53  41  63 NE15G23   30.22S
CRYSTAL        SUNNY     54  39  57 N14G21    30.22R
LAKEVILLE      PTSUNNY   52  43  71 N13G18    30.20S
EDEN PRAIRIE   SUNNY     53  39  59 N15       30.21R
SOUTH ST PAUL  MOSUNNY   53  40  61 N10G21    30.21S
LAKE ELMO      FAIR      52  43  71 N12G18    30.22S
$$
MNZ001>005-007-008-013>017-022>024-027-028-301600-
   Northwest Minnesota

CITY           SKY/WX    TMP DP  RH WIND       PRES   REMARKS
BEMIDJI        MOSUNNY   42  30  64 NE10      30.34R
HALLOCK        SUNNY     43  27  52 N12       30.43S
ROSEAU         SUNNY     41  28  60 N6        30.40S
WARROAD        MOSUNNY   39  28  65 N6        30.40R
THIEF RVR FALL SUNNY     41  28  60 NE12      30.39S
CROOKSTON      SUNNY     41  27  56 N10       30.40F
FOSSTON        MOSUNNY   39  34  81 N10       30.37R
DETROIT LAKES  SUNNY     43  32  65 N7        30.34S
MOORHEAD       SUNNY     41  32  70 N10       30.38S
PARK RAPIDS    MOSUNNY   45  30  55 NE9       30.32R
MAHNOMEN       FAIR      41  32  70 N13       30.36R
$$
MNZ006-009>011-018-025>026-301600-
   North Central Minnesota

CITY           SKY/WX    TMP DP  RH WIND       PRES   REMARKS
BAUDETTE       MOSUNNY   42  28  57 N9        30.37S
FLAG ISLAND    MOSUNNY   39  27  60 N9        30.39R
INTL FALLS     PTSUNNY   40  26  57 N10       30.35S
WASKISH        MOSUNNY   43  30  61 NE10      30.36S
BIG FORK       SUNNY     43  28  56 N9        30.33S
LONGVILLE      MOSUNNY   43  32  65 N3        30.31S
GRAND RAPIDS   SUNNY     43  28  56 N10G16    30.31S
CRANE LAKE     MOSUNNY   37  28  70 N7        30.36R
ORR            SUNNY     39  25  56 NW5       30.31R
COOK           SUNNY     39  28  65 N8        30.33R
WALKER         FAIR      42  30  62 N12       30.33S
$$
MNZ012-019>021-037-301600-
   Northeast Minnesota

CITY           SKY/WX    TMP DP  RH WIND       PRES   REMARKS
DULUTH         MOSUNNY   47  32  56 N16       30.26R
HIBBING        PTSUNNY   43  31  62 NE13G18   30.30S
EVELETH        SUNNY     43  28  56 NE12      30.30S
DULUTH HARBOR  SUNNY     50  37  62 N9        30.29R
TWO HARBORS    SUNNY     52  36  54 N8        30.25R
SILVER BAY     SUNNY     48  30  49 N7        30.25R
GRAND MARAIS     N/A     49  28  44 N8        30.26R
G MARAIS ARPRT SUNNY     41  27  56 NW14G23   30.24R
$$
MNZ029>031-032-039>041-046>048-054>057-064-301600-
   West Central Minnesota

CITY           SKY/WX    TMP DP  RH WIND       PRES   REMARKS
FERGUS FALLS   SUNNY     45  34  65 N7        30.35S
WHEATON        MOSUNNY   43  36  75 N10       30.37S
MORRIS         MOSUNNY   48  39  71 N13       30.31S
ALEXANDRIA     PTSUNNY   48  37  65 N13       30.31S
ELBOW LAKE     PTSUNNY   46  38  73 NE8       30.32F
WADENA         MOSUNNY   43  34  70 N10       30.31S
GLENWOOD       MOSUNNY   46  37  71 N13       30.30S
APPLETON       MOSUNNY   52  39  62 NE12      30.30F
BENSON         SUNNY     52  37  58 NE9       30.30S
ORTONVILLE     MOSUNNY   46  37  71 N10G17    30.33S
MADISON        MOSUNNY   48  39  71 N9G18     30.31S
WILLMAR        FAIR      50  39  66 N13       30.29S
$$
MNZ033>034-036-042>043-049>051-058-059-301600-
   Central Minnesota

CITY           SKY/WX    TMP DP  RH WIND       PRES   REMARKS
ST CLOUD       MOSUNNY   49  36  61 N10G21    30.26S
SAUK CENTRE    FAIR      47  35  64 N9        30.29S
PAYNESVILLE    MOSUNNY   46  37  72 NW10G17   30.28S
AITKIN         SUNNY     48  34  57 N12G18    30.28R
PINE RIVER     PTSUNNY   45  34  65 N10       30.34R
BRAINERD       SUNNY     46  33  60 N14       30.30R
STAPLES        SUNNY     45  30  57 N12       30.31R
LONG PRAIRIE   PTSUNNY   45  34  65 N10G17    30.30R
LITTLE FALLS   MOSUNNY   46  32  57 N8        30.29R
LITCHFIELD     SUNNY     52  39  62 NE14G20   30.27R
BUFFALO        SUNNY     52  37  57 N12G17    30.26R
MAPLE LAKE     SUNNY     52  40  62 N9G20     30.26S
$$
MNZ037-044-045-052-053-301600-
   East Central Minnesota

CITY           SKY/WX    TMP DP  RH WIND       PRES   REMARKS
PRINCETON      SUNNY     52  39  62 N13       30.26S
MORA           SUNNY     50  36  57 N8        30.27S
CAMBRIDGE      SUNNY     54  37  54 N9G18     30.23S
RUSH CITY      SUNNY     51  38  61 N10G17    30.25R
MOOSE LAKE     SUNNY     48  34  57 N8G17     30.25S
HINCKLEY       FAIR      50  37  62 N9G20     30.25S
CLOQUET        SUNNY     46  34  61 NW12G21   30.27R
MCGREGOR       SUNNY     46  32  57 N14G20    30.29R
$$
MNZ071>073-080-081-089-090-097-098-301600-
   Southwest Minnesota

CITY           SKY/WX    TMP DP  RH WIND       PRES   REMARKS
MONTEVIDEO     MOSUNNY   52  41  66 NE13G20   30.30S
GRANITE FALLS  SUNNY     50  41  71 N15G21    30.30S
CANBY          PTSUNNY   46  39  77 N12       30.32S
MARSHALL       PTSUNNY   48  37  66 N15       30.28R
REDWOOD FALLS  MOSUNNY   52  40  63 N12G22    30.26R
OLIVIA         MOSUNNY   46  37  71 N14       30.26S
PIPESTONE      MOSUNNY   46  39  76 NE16      30.26S
WINDOM         MOSUNNY   52  43  71 N17G25    30.24S
WORTHINGTON    PTSUNNY   50  39  66 N17       30.23F
JACKSON        PTSUNNY   50  43  76 N16G26    30.22S
TRACY          PTSUNNY   51  43  75 N17       30.27S
SLAYTON        MOSUNNY   47  41  80 N17       30.26S
$$
MNZ065>067-074>077-082>085-091>093-301600-
   South Central Minnesota

CITY           SKY/WX    TMP DP  RH WIND       PRES   REMARKS
MANKATO        PTSUNNY   52  39  62 N18       30.21S
NEW ULM        PTSUNNY   52  39  62 NE17G23   30.23S
ST JAMES       PTSUNNY   52  43  71 N15       30.24S
FAIRMONT       CLOUDY    52  39  62 N22       30.20S
GLENCOE        MOSUNNY   52  43  71 N10       30.22F
FARIBAULT      PTSUNNY   52  43  71 N15       30.20R
OWATONNA       CLOUDY    52  43  71 N14G23    30.19R
WASECA         PTSUNNY   52  45  76 N15       30.20S
ALBERT LEA     CLOUDY    52  46  82 N12G17    30.17R
$$
MNZ078>079-086>088-094>096-301600-
   Southeast Minnesota

CITY           SKY/WX    TMP DP  RH WIND       PRES   REMARKS
ROCHESTER      CLOUDY    52  46  80 N15G23    30.17R
RED WING       PTSUNNY   54  45  71 N10G16    30.18R
STANTON        CLOUDY    52  44  73 N17       30.19R
DODGE CENTER   CLOUDY    50  46  87 N14G22    30.17R
WINONA         CLOUDY    54  46  76 N7        30.15R
AUSTIN         CLOUDY    52  46  82 N14G21    30.15R
PRESTON        CLOUDY    50  46  85 N12G20    30.14R
$$
ABBREVIATIONS USED IN REMARKS
   TC - TEMPERATURES IN CELSIUS
  WCI - WIND CHILL INDEX
   HX - HEAT INDEX
  VSB - VISIBILITY
$$


USA.gov is the U.S. government's official web portal to all federal, state and local government web resources and services.